Location: Home
(42.5358°N, 72.7383°W)
Time: 13:28:48
(UTC-05:00)

Explorer 11/Cluster Stage 4 - Pass Details

Date: 15 December 2025
Orbit: 463 x 1179 km, 28.8° (Epoch: 21 January)

Event Time Altitude Azimuth Distance (km) Brightness Sun altitude
Rises 18:56:56 0° 242° (WSW) 4,033 11.3 -28.2°
Reaches altitude 10° 19:00:23 10° 230° (SW) 3,024 10.2 -28.8°
Maximum altitude 19:06:18 26° 179° (S) 1,971 8.6 -29.9°
Enters shadow 19:07:09 25° 167° (SSE) 1,975 8.5 -30.1°
